This is the latest recevied weather packets stored in our database for station/object KN6KS. If no packets are shown the sender has not sent any weather packets the latest 10 day(s).
| Time | Temp. | Humidity | Pressure | Rain* | Wind** | Luminosity | Snow |
|---|---|---|---|---|---|---|---|
| 1778093442 | 23.89° C | 32% | 1016.6 hPa | 0 mm | - | 739 W/m² | - |
| 1778093139 | 23.33° C | 32% | 1016.3 hPa | 0 mm | - | 746 W/m² | - |
| 1778092836 | 23.33° C | 33% | 1016.4 hPa | 0 mm | - | 752 W/m² | - |
| 1778092532 | 23.33° C | 32% | 1016.7 hPa | 0 mm | - | 748 W/m² | - |
| 1778092229 | 23.33° C | 32% | 1016.4 hPa | 0 mm | - | 750 W/m² | - |
| 1778091926 | 23.33° C | 33% | 1016.8 hPa | 0 mm | - | 760 W/m² | - |
| 1778091623 | 22.22° C | 31% | 1016.8 hPa | 0 mm | - | 759 W/m² | - |
| 1778091321 | 22.78° C | 32% | 1016.7 hPa | 0 mm | - | 747 W/m² | - |
| 1778091018 | 22.22° C | 34% | 1016.7 hPa | 0 mm | - | 700 W/m² | - |
| 1778090714 | 22.22° C | 33% | 1016.4 hPa | 0 mm | - | 665 W/m² | - |
| 1778090411 | 22.22° C | 38% | 1016.7 hPa | 0 mm | - | 711 W/m² | - |
| 1778090108 | 21.67° C | 38% | 1016.9 hPa | 0 mm | - | 742 W/m² | - |
| 1778089804 | 21.67° C | 38% | 1016.8 hPa | 0 mm | - | 749 W/m² | - |
| 1778089503 | 21.67° C | 36% | 1016.8 hPa | 0 mm | - | 752 W/m² | - |
| 1778089198 | 21.67° C | 36% | 1016.7 hPa | 0 mm | - | 779 W/m² | - |
| 1778088896 | 21.67° C | 38% | 1016.8 hPa | 0 mm | - | 784 W/m² | - |
| 1778088592 | 21.11° C | 38% | 1017 hPa | 0 mm | - | 770 W/m² | - |
| 1778088290 | 21.11° C | 37% | 1016.8 hPa | 0 mm | - | 754 W/m² | - |
| 1778087986 | 20° C | 41% | 1017 hPa | 0 mm | - | 753 W/m² | - |
| 1778087684 | 19.44° C | 42% | 1016.8 hPa | 0 mm | - | 755 W/m² | - |
| 1778087381 | 19.44° C | 43% | 1017.1 hPa | 0 mm | - | 757 W/m² | - |
| 1778087077 | 19.44° C | 43% | 1017.1 hPa | 0 mm | - | 741 W/m² | - |
| 1778086770 | 19.44° C | 43% | 1017 hPa | 0 mm | - | 718 W/m² | - |
| 1778086469 | 18.89° C | 43% | 1017 hPa | 0 mm | - | 713 W/m² | - |
| 1778086164 | 18.33° C | 44% | 1017 hPa | 0 mm | - | 706 W/m² | - |
* Rain latest hour (hover to see other rain measurements)
** Current wind speed in m/s (hover to see current wind gust speed)